{"data":{"norad_id":69756,"intl_designator":"2026-150T","name":"STARLINK-38036","alt_names":[],"object_type":"PAYLOAD","status":"ACTIVE","operator":null,"country":"US","launch_date":"2026-07-02","launch_site_code":"AFWTR","launch_vehicle":null,"mission":null,"orbit_class":"UNKNOWN","rcs_meters":null,"size_class":null,"mass_kg":null,"dimensions":null,"purposes":["comms"],"wikipedia_slug":null,"has_3d_model":false,"image_url":null,"decayed_at":null,"tle_current":{"epoch":"2026-09-19T23:54:18.815040Z","epoch_age_seconds":61361,"freshness":"FRESH","line1":"1 69756U 26150T   26262.99605110  .00011481  00000+0  35734-3 0  9995","line2":"2 69756  97.2824 102.0061 0000625 102.4429 257.6884 15.33452385 13667","mean_motion":15.33452385,"eccentricity":6.25e-5,"inclination_deg":97.2824,"raan_deg":102.0061,"arg_perigee_deg":102.4429,"mean_anomaly_deg":257.6884,"bstar":0.00035734,"rev_number":1366,"period_min":93.905752411086,"perigee_km":465.09347336448,"apogee_km":465.94893063973,"semimajor_km":6843.6582020021,"source":"CELESTRAK","updated_at":"2026-09-20T09:00:44.289618Z"}}}